| time (UTC) | temp F | wind direction | speed knots | gust knots | rain 1hr in | rain 24hr in | rain mn in | humidity % | barometer mb |
| 20260510164546 | 77 | 0 | 0.0 | 0.0 | 0.00 | 0.05 | 0.00 | 57 | 1013.2 |
| 20260510164012 | 76 | 0 | 0.0 | 0.0 | 0.00 | 0.05 | 0.00 | 55 | 1013.3 |
| 20260510163513 | 76 | 0 | 0.0 | 0.0 | 0.00 | 0.05 | 0.00 | 55 | 1013.1 |
| 20260510163034 | 76 | 0 | 0.0 | 0.0 | 0.00 | 0.05 | 0.00 | 58 | 1013.1 |
| 20260510162513 | 75 | 0 | 0.0 | 0.0 | 0.00 | 0.05 | 0.00 | 65 | 1013.2 |
| 20260510162013 | 75 | 0 | 0.0 | 0.0 | 0.00 | 0.05 | 0.00 | 63 | 1013.2 |
| 20260510161535 | 75 | 0 | 0.0 | 0.0 | 0.00 | 0.05 | 0.00 | 63 | 1013.3 |
| 20260510161023 | 75 | 0 | 0.0 | 0.0 | 0.00 | 0.05 | 0.00 | 61 | 1013.4 |
| 20260510160511 | 75 | 0 | 0.0 | 0.0 | 0.00 | 0.05 | 0.00 | 64 | 1013.3 |
| 20260510160037 | 75 | 0 | 0.0 | 0.0 | 0.00 | 0.05 | 0.00 | 63 | 1013.3 |
| 20260510155513 | 75 | 0 | 0.0 | 0.0 | 0.00 | 0.07 | 0.00 | 60 | 1013.2 |
| 20260510155112 | 74 | 0 | 0.0 | 0.0 | 0.00 | 0.07 | 0.00 | 62 | 1013.3 |
| 20260510154623 | 74 | 0 | 0.0 | 0.0 | 0.00 | 0.07 | 0.00 | 61 | 1013.2 |
| 20260510154012 | 74 | 0 | 0.0 | 0.0 | 0.00 | 0.07 | 0.00 | 62 | 1013.2 |
| 20260510153512 | 74 | 0 | 0.0 | 0.0 | 0.00 | 0.07 | 0.00 | 65 | 1013.3 |
| 20260510153108 | 73 | 0 | 0.0 | 0.0 | 0.00 | 0.07 | 0.00 | 64 | 1013.3 |
| 20260510152515 | 72 | 0 | 0.0 | 0.0 | 0.00 | 0.07 | 0.00 | 67 | 1013.2 |
| 20260510152012 | 72 | 0 | 0.0 | 0.0 | 0.00 | 0.07 | 0.00 | 66 | 1013.3 |
| 20260510151529 | 72 | 0 | 0.0 | 0.0 | 0.00 | 0.07 | 0.00 | 66 | 1013.3 |
| 20260510151010 | 72 | 0 | 0.0 | 0.0 | 0.00 | 0.07 | 0.00 | 68 | 1013.3 |
| 20260510150512 | 72 | 0 | 0.0 | 0.0 | 0.00 | 0.07 | 0.00 | 68 | 1013.2 |
| 20260510150034 | 72 | 0 | 0.0 | 0.0 | 0.00 | 0.07 | 0.00 | 66 | 1013.2 |
| 20260510145614 | 71 | 0 | 0.0 | 0.0 | 0.00 | 0.07 | 0.00 | 65 | 1013.2 |
| 20260510145011 | 71 | 0 | 0.0 | 0.0 | 0.00 | 0.07 | 0.00 | 69 | 1013.1 |
| 20260510144529 | 71 | 0 | 0.0 | 0.0 | 0.00 | 0.07 | 0.00 | 69 | 1013.1 |
| 20260510144011 | 70 | 0 | 0.0 | 0.0 | 0.00 | 0.07 | 0.00 | 70 | 1013.2 |
| 20260510143512 | 70 | 0 | 0.0 | 0.0 | 0.00 | 0.07 | 0.00 | 71 | 1013.2 |
| 20260510143038 | 69 | 0 | 0.0 | 0.0 | 0.00 | 0.07 | 0.00 | 73 | 1013.2 |
| 20260510142513 | 69 | 0 | 0.0 | 0.0 | 0.00 | 0.07 | 0.00 | 71 | 1013.2 |
| 20260510142017 | 68 | 0 | 0.0 | 0.0 | 0.00 | 0.07 | 0.00 | 73 | 1013.3 |
| 20260510141533 | 68 | 0 | 0.0 | 0.0 | 0.00 | 0.07 | 0.00 | 76 | 1013.2 |
| 20260510141013 | 67 | 0 | 0.0 | 0.0 | 0.00 | 0.07 | 0.00 | 74 | 1013.2 |
| 20260510140512 | 67 | 0 | 0.0 | 0.0 | 0.00 | 0.07 | 0.00 | 76 | 1013.1 |
| 20260510140030 | 67 | 0 | 0.0 | 0.0 | 0.00 | 0.07 | 0.00 | 80 | 1013.2 |
| 20260510135510 | 66 | 0 | 0.0 | 0.0 | 0.00 | 0.07 | 0.00 | 82 | 1013.2 |
| 20260510135010 | 65 | 0 | 0.0 | 0.0 | 0.00 | 0.07 | 0.00 | 84 | 1013.1 |
| 20260510134531 | 65 | 0 | 0.0 | 0.0 | 0.00 | 0.07 | 0.00 | 84 | 1013.2 |
| 20260510134012 | 64 | 0 | 0.0 | 0.0 | 0.00 | 0.07 | 0.00 | 85 | 1013.1 |
| 20260510133512 | 63 | 0 | 0.0 | 0.0 | 0.00 | 0.07 | 0.00 | 86 | 1013.1 |
| 20260510133029 | 63 | 0 | 0.0 | 0.0 | 0.00 | 0.07 | 0.00 | 88 | 1013.0 |
| 20260510132511 | 62 | 0 | 0.0 | 0.0 | 0.00 | 0.07 | 0.00 | 90 | 1013.0 |
| 20260510132011 | 61 | 0 | 0.0 | 0.0 | 0.00 | 0.07 | 0.00 | 93 | 1013.1 |
| 20260510131531 | 60 | 0 | 0.0 | 0.0 | 0.00 | 0.07 | 0.00 | 93 | 1013.1 |
| 20260510131011 | 59 | 0 | 0.0 | 0.0 | 0.00 | 0.07 | 0.00 | 95 | 1013.1 |
| 20260510130512 | 59 | 0 | 0.0 | 0.0 | 0.00 | 0.07 | 0.00 | 95 | 1013.1 |
| 20260510130035 | 58 | 0 | 0.0 | 0.0 | 0.00 | 0.07 | 0.00 | 96 | 1013.1 |
| 20260510125511 | 58 | 0 | 0.0 | 0.0 | 0.00 | 0.07 | 0.00 | 96 | 1013.2 |
| 20260510125013 | 58 | 0 | 0.0 | 0.0 | 0.00 | 0.07 | 0.00 | 96 | 1013.2 |
| 20260510124554 | 57 | 0 | 0.0 | 0.0 | 0.00 | 0.07 | 0.00 | 96 | 1013.1 |
| 20260510124011 | 58 | 0 | 0.0 | 0.0 | 0.00 | 0.07 | 0.00 | 97 | 1013.1 |
| 20260510123514 | 57 | 0 | 0.0 | 0.0 | 0.00 | 0.07 | 0.00 | 96 | 1013.0 |
| 20260510123028 | 56 | 0 | 0.0 | 0.0 | 0.00 | 0.07 | 0.00 | 96 | 1013.0 |
| 20260510122514 | 55 | 0 | 0.0 | 0.0 | 0.00 | 0.07 | 0.00 | 96 | 1012.8 |
| 20260510122011 | 55 | 0 | 0.0 | 0.0 | 0.00 | 0.07 | 0.00 | 96 | 1012.8 |
| 20260510121532 | 54 | 0 | 0.0 | 0.0 | 0.00 | 0.07 | 0.00 | 96 | 1012.9 |
| 20260510121016 | 54 | 0 | 0.0 | 0.0 | 0.00 | 0.07 | 0.00 | 96 | 1012.7 |
| 20260510120512 | 54 | 0 | 0.0 | 0.0 | 0.00 | 0.07 | 0.00 | 96 | 1012.7 |
| 20260510120033 | 54 | 0 | 0.0 | 0.0 | 0.00 | 0.07 | 0.00 | 96 | 1012.6 |
| 20260510115513 | 54 | 0 | 0.0 | 0.0 | 0.00 | 0.07 | 0.00 | 96 | 1012.5 |
| 20260510115222 | 54 | 0 | 0.0 | 0.0 | 0.00 | 0.07 | 0.00 | 96 | 1012.3 |
| 20260510114657 | 54 | 0 | 0.0 | 0.0 | 0.00 | 0.07 | 0.00 | 96 | 1012.3 |
| 20260510114546 | 54 | 0 | 0.0 | 0.0 | 0.00 | 0.07 | 0.00 | 96 | 1012.3 |
| 20260510114319 | 53 | 0 | 0.0 | 0.0 | 0.00 | 0.07 | 0.00 | 96 | 1012.4 |
| 20260510113509 | 53 | 0 | 0.0 | 0.0 | 0.00 | 0.07 | 0.00 | 96 | 1012.2 |
| 20260510113035 | 52 | 0 | 0.0 | 0.0 | 0.00 | 0.07 | 0.00 | 95 | 1012.3 |
| 20260510112521 | 52 | 0 | 0.0 | 0.0 | 0.00 | 0.07 | 0.00 | 95 | 1012.4 |
| 20260510112020 | 52 | 0 | 0.0 | 0.0 | 0.00 | 0.07 | 0.00 | 95 | 1012.3 |
| 20260510111545 | 52 | 0 | 0.0 | 0.0 | 0.00 | 0.07 | 0.00 | 95 | 1012.2 |
| 20260510111100 | 52 | 0 | 0.0 | 0.0 | 0.00 | 0.07 | 0.00 | 96 | 1012.2 |
| 20260510110913 | 52 | 0 | 0.0 | 0.0 | 0.00 | 0.07 | 0.00 | 96 | 1012.2 |
| 20260510105513 | 51 | 0 | 0.0 | 1.7 | 0.00 | 0.07 | 0.00 | 95 | 1011.9 |
| 20260510105301 | 51 | 0 | 0.0 | 1.7 | 0.00 | 0.07 | 0.00 | 95 | 1012.2 |
| 20260510104829 | 51 | 0 | 0.0 | 1.7 | 0.00 | 0.07 | 0.00 | 95 | 1012.2 |
| 20260510104015 | 51 | 0 | 0.0 | 0.0 | 0.00 | 0.07 | 0.00 | 95 | 1012.0 |
| 20260510103512 | 50 | 0 | 0.0 | 0.0 | 0.00 | 0.07 | 0.00 | 95 | 1011.9 |
| 20260510103131 | 50 | 0 | 0.0 | 0.0 | 0.00 | 0.07 | 0.00 | 95 | 1011.8 |
| 20260510102819 | 50 | 0 | 0.0 | 0.0 | 0.00 | 0.07 | 0.00 | 95 | 1011.7 |
| 20260510102427 | 50 | 0 | 0.0 | 0.0 | 0.00 | 0.07 | 0.00 | 95 | 1011.8 |
| 20260510102352 | 50 | 0 | 0.0 | 0.0 | 0.00 | 0.07 | 0.00 | 95 | 1011.8 |
| 20260510101530 | 50 | 0 | 0.0 | 0.0 | 0.00 | 0.07 | 0.00 | 95 | 1011.6 |
| 20260510101014 | 50 | 0 | 0.0 | 0.0 | 0.00 | 0.07 | 0.00 | 95 | 1011.7 |
| 20260510100521 | 50 | 0 | 0.0 | 0.0 | 0.00 | 0.07 | 0.00 | 95 | 1011.5 |
| 20260510100028 | 50 | 0 | 0.0 | 0.0 | 0.00 | 0.07 | 0.00 | 95 | 1011.6 |
| 20260510095521 | 50 | 0 | 0.0 | 0.0 | 0.00 | 0.07 | 0.00 | 95 | 1011.6 |
| 20260510095014 | 50 | 0 | 0.0 | 0.0 | 0.00 | 0.07 | 0.00 | 95 | 1011.5 |
| 20260510094532 | 50 | 0 | 0.0 | 0.0 | 0.00 | 0.07 | 0.00 | 95 | 1011.6 |
| 20260510094022 | 50 | 0 | 0.0 | 0.0 | 0.00 | 0.07 | 0.00 | 95 | 1011.5 |
| 20260510093515 | 50 | 0 | 0.0 | 0.0 | 0.00 | 0.07 | 0.00 | 95 | 1011.5 |
| 20260510093100 | 50 | 0 | 0.0 | 0.0 | 0.00 | 0.07 | 0.00 | 95 | 1011.5 |
| 20260510092512 | 49 | 0 | 0.0 | 0.0 | 0.00 | 0.07 | 0.00 | 95 | 1011.4 |
| 20260510092013 | 49 | 0 | 0.0 | 1.7 | 0.00 | 0.07 | 0.00 | 95 | 1011.1 |
| 20260510091733 | 49 | 0 | 0.0 | 1.7 | 0.00 | 0.07 | 0.00 | 95 | 1011.3 |
| 20260510091613 | 49 | 0 | 0.0 | 1.7 | 0.00 | 0.07 | 0.00 | 95 | 1011.3 |
| 20260510091014 | 49 | 0 | 0.0 | 0.0 | 0.00 | 0.07 | 0.00 | 95 | 1011.3 |
| 20260510090518 | 49 | 0 | 0.0 | 0.0 | 0.00 | 0.07 | 0.00 | 94 | 1011.2 |
| 20260510090300 | 49 | 0 | 0.0 | 0.0 | 0.00 | 0.07 | 0.00 | 94 | 1011.6 |
| 20260510084627 | 48 | 0 | 0.0 | 4.3 | 0.00 | 0.07 | 0.00 | 94 | 1011.6 |
| 20260510083520 | 48 | 0 | 0.0 | 2.6 | 0.00 | 0.07 | 0.00 | 94 | 1011.6 |
| 20260510083028 | 48 | 0 | 0.0 | 2.6 | 0.00 | 0.07 | 0.00 | 94 | 1011.4 |
| 20260510082834 | 48 | 218 | 0.0 | 3.5 | 0.00 | 0.07 | 0.00 | 94 | 1011.1 |
| 20260510082449 | 48 | 219 | 0.0 | 7.0 | 0.00 | 0.07 | 0.00 | 94 | 1011.4 |
| 20260510080117 | 48 | 0 | 0.0 | 0.0 | 0.00 | 0.07 | 0.00 | 93 | 1010.7 |
| 20260510075543 | 48 | 0 | 0.0 | 0.0 | 0.00 | 0.07 | 0.00 | 93 | 1010.6 |
| 20260510075014 | 48 | 0 | 0.0 | 0.0 | 0.00 | 0.07 | 0.00 | 93 | 1010.9 |
| 20260510074951 | 48 | 0 | 0.0 | 0.0 | 0.00 | 0.07 | 0.00 | 93 | 1010.7 |
| 20260510074133 | 48 | 0 | 0.0 | 1.7 | 0.00 | 0.07 | 0.00 | 93 | 1010.7 |
| 20260510073522 | 48 | 0 | 0.0 | 1.7 | 0.00 | 0.07 | 0.00 | 93 | 1010.7 |
| 20260510073040 | 48 | 0 | 0.0 | 1.7 | 0.00 | 0.07 | 0.00 | 93 | 1010.7 |
| 20260510072635 | 48 | 0 | 0.0 | 3.5 | 0.00 | 0.07 | 0.00 | 93 | 1010.6 |
| 20260510072028 | 48 | 0 | 0.0 | 3.5 | 0.00 | 0.07 | 0.00 | 93 | 1010.7 |
| 20260510071723 | 48 | 213 | 0.0 | 3.5 | 0.00 | 0.07 | 0.00 | 93 | 1010.7 |
| 20260510071230 | 48 | 0 | 0.0 | 2.6 | 0.00 | 0.07 | 0.00 | 93 | 1010.7 |
| 20260510071000 | 48 | 0 | 0.0 | 0.0 | 0.00 | 0.07 | 0.00 | 93 | 1010.6 |
| 20260510070042 | 48 | 0 | 0.0 | 0.0 | 0.00 | 0.07 | 0.00 | 93 | 1010.5 |
| 20260510065747 | 48 | 0 | 0.0 | 0.0 | 0.00 | 0.07 | 0.00 | 93 | 1010.5 |
| 20260510064555 | 48 | 0 | 0.0 | 0.0 | 0.00 | 0.07 | 0.00 | 92 | 1010.4 |
| 20260510064055 | 48 | 0 | 0.0 | 0.0 | 0.00 | 0.07 | 0.00 | 92 | 1010.2 |
| 20260510063042 | 48 | 0 | 0.0 | 0.0 | 0.00 | 0.07 | 0.00 | 93 | 1010.2 |
| 20260510062609 | 49 | 0 | 0.0 | 0.0 | 0.00 | 0.07 | 0.00 | 93 | 1010.2 |
| 20260510062015 | 49 | 0 | 0.0 | 0.0 | 0.00 | 0.07 | 0.00 | 93 | 1010.3 |
| 20260510061542 | 49 | 0 | 0.0 | 0.0 | 0.00 | 0.07 | 0.00 | 93 | 1010.3 |
| 20260510061223 | 49 | 0 | 0.0 | 0.0 | 0.00 | 0.07 | 0.00 | 93 | 1010.3 |
| 20260510061027 | 49 | 0 | 0.0 | 0.0 | 0.00 | 0.07 | 0.00 | 93 | 1010.3 |
| 20260510060807 | 49 | 0 | 0.0 | 0.0 | 0.00 | 0.07 | 0.00 | 93 | 1010.3 |
| 20260510060132 | 49 | 0 | 0.0 | 0.0 | 0.00 | 0.07 | 0.00 | 93 | 1010.3 |
| 20260510055601 | 49 | 0 | 0.0 | 0.0 | 0.00 | 0.07 | 0.00 | 93 | 1010.4 |
| 20260510055012 | 49 | 0 | 0.0 | 0.0 | 0.00 | 0.07 | 0.00 | 93 | 1010.6 |
| 20260510054534 | 49 | 0 | 0.0 | 0.0 | 0.00 | 0.07 | 0.00 | 93 | 1010.4 |
| 20260510054325 | 49 | 0 | 0.0 | 0.0 | 0.00 | 0.07 | 0.00 | 93 | 1010.6 |
| 20260510053513 | 49 | 0 | 0.0 | 0.0 | 0.00 | 0.07 | 0.00 | 93 | 1010.6 |
| 20260510053029 | 48 | 0 | 0.0 | 0.0 | 0.00 | 0.07 | 0.00 | 93 | 1010.7 |
| 20260510052508 | 48 | 0 | 0.0 | 0.0 | 0.00 | 0.07 | 0.00 | 93 | 1010.7 |
| 20260510052021 | 48 | 0 | 0.0 | 0.0 | 0.00 | 0.07 | 0.00 | 93 | 1010.8 |
| 20260510051618 | 48 | 0 | 0.0 | 0.0 | 0.00 | 0.07 | 0.00 | 92 | 1010.7 |
| 20260510050510 | 48 | 0 | 0.0 | 0.0 | 0.00 | 0.07 | 0.00 | 92 | 1010.7 |
| 20260510050248 | 48 | 0 | 0.0 | 0.0 | 0.00 | 0.07 | 0.00 | 92 | 1010.7 |
| 20260510044538 | 48 | 0 | 0.0 | 0.0 | 0.00 | 0.07 | 0.00 | 91 | 1010.9 |
| 20260510044015 | 48 | 0 | 0.0 | 0.0 | 0.00 | 0.07 | 0.00 | 91 | 1010.8 |
| 20260510043520 | 48 | 0 | 0.0 | 0.0 | 0.00 | 0.07 | 0.00 | 92 | 1010.9 |
| 20260510043029 | 48 | 0 | 0.0 | 0.0 | 0.00 | 0.07 | 0.00 | 91 | 1011.1 |
| 20260510042529 | 48 | 0 | 0.0 | 0.0 | 0.00 | 0.07 | 0.00 | 91 | 1011.1 |
| 20260510042021 | 48 | 0 | 0.0 | 0.0 | 0.00 | 0.07 | 0.00 | 91 | 1011.0 |
| 20260510041536 | 48 | 0 | 0.0 | 0.0 | 0.00 | 0.07 | 0.00 | 91 | 1011.0 |
| 20260510040712 | 48 | 0 | 0.0 | 0.0 | 0.00 | 0.07 | 0.00 | 91 | 1011.1 |
| 20260510040331 | 49 | 0 | 0.0 | 0.0 | 0.00 | 0.07 | 0.00 | 91 | 1011.1 |
| 20260510034333 | 49 | 0 | 0.0 | 0.0 | 0.00 | 0.07 | 0.07 | 91 | 1011.0 |
| 20260510032515 | 49 | 0 | 0.0 | 0.0 | 0.00 | 0.07 | 0.07 | 91 | 1010.8 |
| 20260510032015 | 49 | 0 | 0.0 | 0.0 | 0.00 | 0.07 | 0.07 | 91 | 1010.8 |
| 20260510031954 | 49 | 0 | 0.0 | 0.0 | 0.00 | 0.07 | 0.07 | 91 | 1010.9 |
| 20260510025529 | 50 | 0 | 0.0 | 0.0 | 0.00 | 0.07 | 0.07 | 91 | 1010.6 |
| 20260510025014 | 50 | 0 | 0.0 | 0.0 | 0.00 | 0.07 | 0.07 | 91 | 1010.4 |
| 20260510024533 | 50 | 0 | 0.0 | 0.0 | 0.00 | 0.07 | 0.07 | 91 | 1010.5 |
| 20260510024030 | 50 | 0 | 0.0 | 0.0 | 0.00 | 0.07 | 0.07 | 91 | 1010.5 |
| 20260510023512 | 50 | 0 | 0.0 | 0.0 | 0.00 | 0.07 | 0.07 | 91 | 1010.6 |
| 20260510023029 | 50 | 0 | 0.0 | 0.0 | 0.00 | 0.07 | 0.07 | 91 | 1010.7 |
| 20260510022510 | 50 | 0 | 0.0 | 0.0 | 0.00 | 0.07 | 0.07 | 91 | 1010.6 |
| 20260510022009 | 51 | 0 | 0.0 | 0.0 | 0.00 | 0.07 | 0.07 | 91 | 1010.6 |
| 20260510021530 | 51 | 0 | 0.0 | 0.0 | 0.00 | 0.07 | 0.07 | 91 | 1010.7 |
| 20260510021011 | 51 | 0 | 0.0 | 0.0 | 0.00 | 0.07 | 0.07 | 91 | 1010.7 |
| 20260510020510 | 51 | 0 | 0.0 | 0.0 | 0.00 | 0.07 | 0.07 | 91 | 1010.5 |
| 20260510020033 | 51 | 0 | 0.0 | 0.0 | 0.00 | 0.07 | 0.07 | 91 | 1010.5 |
| 20260510015516 | 51 | 0 | 0.0 | 0.0 | 0.00 | 0.07 | 0.07 | 91 | 1010.6 |
| 20260510015016 | 51 | 0 | 0.0 | 0.0 | 0.00 | 0.07 | 0.07 | 91 | 1010.5 |
| 20260510014534 | 51 | 0 | 0.0 | 0.0 | 0.00 | 0.07 | 0.07 | 91 | 1010.5 |
| 20260510014043 | 51 | 0 | 0.0 | 0.0 | 0.00 | 0.07 | 0.07 | 90 | 1010.5 |
| 20260510013516 | 51 | 0 | 0.0 | 0.0 | 0.00 | 0.07 | 0.07 | 90 | 1010.4 |
| 20260510013050 | 51 | 0 | 0.0 | 0.0 | 0.00 | 0.07 | 0.07 | 90 | 1010.4 |
| 20260510012518 | 51 | 0 | 0.0 | 0.0 | 0.00 | 0.07 | 0.07 | 90 | 1010.4 |
| 20260510012014 | 52 | 0 | 0.0 | 0.0 | 0.00 | 0.07 | 0.07 | 90 | 1010.5 |
| 20260510011533 | 52 | 0 | 0.0 | 0.0 | 0.00 | 0.07 | 0.07 | 90 | 1010.3 |
| 20260510011013 | 52 | 0 | 0.0 | 0.0 | 0.00 | 0.07 | 0.07 | 90 | 1010.3 |
| 20260510010510 | 52 | 0 | 0.0 | 0.0 | 0.00 | 0.07 | 0.07 | 90 | 1010.2 |
| 20260510010045 | 52 | 0 | 0.0 | 0.0 | 0.00 | 0.07 | 0.07 | 90 | 1010.2 |
| 20260510005510 | 52 | 0 | 0.0 | 0.0 | 0.00 | 0.07 | 0.07 | 90 | 1010.2 |
| 20260510005013 | 53 | 0 | 0.0 | 0.0 | 0.00 | 0.07 | 0.07 | 90 | 1010.2 |
| 20260510004533 | 53 | 0 | 0.0 | 0.0 | 0.00 | 0.07 | 0.07 | 90 | 1010.2 |
| 20260510004222 | 53 | 0 | 0.0 | 0.0 | 0.00 | 0.07 | 0.07 | 90 | 1010.2 |
| 20260510004028 | 53 | 0 | 0.0 | 0.0 | 0.00 | 0.07 | 0.07 | 90 | 1010.2 |
| 20260510003516 | 53 | 0 | 0.0 | 0.0 | 0.00 | 0.07 | 0.07 | 90 | 1010.0 |
| 20260510003044 | 54 | 0 | 0.0 | 0.0 | 0.00 | 0.07 | 0.07 | 90 | 1009.8 |
| 20260510002514 | 54 | 0 | 0.0 | 0.0 | 0.00 | 0.07 | 0.07 | 90 | 1009.9 |
| 20260510002013 | 54 | 0 | 0.0 | 0.0 | 0.00 | 0.07 | 0.07 | 90 | 1010.1 |
| 20260510001532 | 54 | 0 | 0.0 | 0.0 | 0.00 | 0.07 | 0.07 | 91 | 1010.0 |
| 20260510001015 | 54 | 0 | 0.0 | 0.0 | 0.00 | 0.07 | 0.07 | 91 | 1010.1 |
| 20260510000512 | 54 | 0 | 0.0 | 0.0 | 0.00 | 0.07 | 0.07 | 91 | 1010.1 |
| 20260510000111 | 55 | 0 | 0.0 | 0.0 | 0.00 | 0.07 | 0.07 | 90 | 1010.0 |
| 20260510000033 | 55 | 0 | 0.0 | 0.0 | 0.00 | 0.07 | 0.07 | 90 | 1010.0 |
| 20260509235725 | 55 | 0 | 0.0 | 0.0 | 0.00 | 0.07 | 0.07 | 90 | 1010.0 |
| 20260509235021 | 55 | 0 | 0.0 | 0.0 | 0.00 | 0.07 | 0.07 | 90 | 1010.0 |
| 20260509234555 | 55 | 0 | 0.0 | 0.0 | 0.00 | 0.07 | 0.07 | 91 | 1010.0 |
| 20260509234056 | 55 | 0 | 0.0 | 0.0 | 0.00 | 0.07 | 0.07 | 90 | 1010.0 |
| 20260509233515 | 55 | 0 | 0.0 | 0.0 | 0.00 | 0.07 | 0.07 | 90 | 1010.1 |
| 20260509233041 | 55 | 0 | 0.0 | 0.0 | 0.00 | 0.07 | 0.07 | 90 | 1010.0 |
| 20260509232510 | 55 | 0 | 0.0 | 0.0 | 0.00 | 0.07 | 0.07 | 90 | 1010.0 |
| 20260509232011 | 55 | 0 | 0.0 | 0.0 | 0.00 | 0.07 | 0.07 | 90 | 1010.1 |
| 20260509231540 | 55 | 0 | 0.0 | 0.0 | 0.00 | 0.07 | 0.07 | 90 | 1010.1 |
| 20260509231014 | 55 | 0 | 0.0 | 0.0 | 0.00 | 0.07 | 0.07 | 90 | 1010.1 |
| 20260509230715 | 55 | 0 | 0.0 | 0.0 | 0.00 | 0.07 | 0.07 | 90 | 1010.0 |
| 20260509230032 | 55 | 0 | 0.0 | 0.0 | 0.00 | 0.07 | 0.07 | 90 | 1009.9 |
| 20260509225512 | 56 | 0 | 0.0 | 0.0 | 0.00 | 0.07 | 0.07 | 90 | 1009.9 |
| 20260509225013 | 56 | 0 | 0.0 | 0.0 | 0.00 | 0.07 | 0.07 | 90 | 1009.8 |
| 20260509224532 | 56 | 0 | 0.0 | 0.0 | 0.00 | 0.07 | 0.07 | 90 | 1009.9 |
| 20260509224013 | 56 | 0 | 0.0 | 0.0 | 0.00 | 0.07 | 0.07 | 90 | 1010.0 |
| 20260509223512 | 56 | 0 | 0.0 | 0.0 | 0.00 | 0.07 | 0.07 | 90 | 1009.9 |
| 20260509223033 | 56 | 0 | 0.0 | 0.0 | 0.00 | 0.07 | 0.07 | 91 | 1010.0 |
| 20260509222513 | 56 | 0 | 0.0 | 0.0 | 0.00 | 0.07 | 0.07 | 91 | 1009.9 |
| 20260509222011 | 56 | 0 | 0.0 | 0.0 | 0.00 | 0.07 | 0.07 | 91 | 1010.1 |
| 20260509221529 | 56 | 0 | 0.0 | 0.0 | 0.00 | 0.07 | 0.07 | 91 | 1010.1 |
| 20260509221014 | 56 | 0 | 0.0 | 0.0 | 0.00 | 0.07 | 0.07 | 92 | 1010.0 |
| 20260509220511 | 56 | 0 | 0.0 | 0.0 | 0.00 | 0.07 | 0.07 | 92 | 1009.9 |
| 20260509220030 | 56 | 0 | 0.0 | 0.0 | 0.00 | 0.07 | 0.07 | 92 | 1009.9 |
| 20260509215512 | 56 | 0 | 0.0 | 0.0 | 0.00 | 0.07 | 0.07 | 93 | 1010.0 |
| 20260509215018 | 56 | 0 | 0.0 | 0.0 | 0.00 | 0.07 | 0.07 | 93 | 1009.8 |
| 20260509214533 | 56 | 0 | 0.0 | 0.0 | 0.00 | 0.07 | 0.07 | 93 | 1009.7 |
| 20260509214304 | 55 | 0 | 0.0 | 0.0 | 0.00 | 0.07 | 0.07 | 93 | 1009.8 |
| 20260509214154 | 55 | 0 | 0.0 | 0.0 | 0.00 | 0.07 | 0.07 | 93 | 1009.8 |
| 20260509213604 | 55 | 0 | 0.0 | 0.0 | 0.00 | 0.07 | 0.07 | 92 | 1009.9 |
| 20260509213031 | 55 | 0 | 0.0 | 0.0 | 0.00 | 0.07 | 0.07 | 92 | 1009.8 |
| 20260509212510 | 55 | 0 | 0.0 | 1.7 | 0.00 | 0.07 | 0.07 | 92 | 1009.8 |
| 20260509212014 | 55 | 0 | 0.0 | 1.7 | 0.00 | 0.07 | 0.07 | 92 | 1010.0 |
| 20260509211533 | 55 | 0 | 0.0 | 1.7 | 0.01 | 0.07 | 0.07 | 92 | 1010.0 |
| 20260509211056 | 56 | 0 | 0.0 | 0.0 | 0.01 | 0.07 | 0.07 | 92 | 1010.1 |
| 20260509210703 | 56 | 0 | 0.0 | 0.0 | 0.01 | 0.07 | 0.07 | 92 | 1010.1 |
| 20260509210304 | 56 | 0 | 0.0 | 0.0 | 0.01 | 0.07 | 0.07 | 93 | 1010.0 |
| 20260509204813 | 56 | 0 | 0.0 | 1.7 | 0.01 | 0.07 | 0.07 | 93 | 1010.0 |
| 20260509204019 | 56 | 0 | 0.0 | 0.0 | 0.01 | 0.07 | 0.07 | 93 | 1010.2 |
| 20260509204012 | 56 | 0 | 0.0 | 2.6 | 0.01 | 0.07 | 0.07 | 93 | 1010.0 |
| 20260509203041 | 55 | 0 | 0.0 | 2.6 | 0.01 | 0.07 | 0.07 | 93 | 1010.1 |
| 20260509202810 | 55 | 0 | 0.0 | 1.7 | 0.01 | 0.07 | 0.07 | 92 | 1009.9 |
| 20260509202323 | 55 | 0 | 0.0 | 2.6 | 0.01 | 0.07 | 0.07 | 92 | 1010.0 |
| 20260509201529 | 55 | 0 | 0.0 | 2.6 | 0.00 | 0.06 | 0.06 | 92 | 1010.0 |
| 20260509201013 | 55 | 0 | 0.0 | 2.6 | 0.00 | 0.06 | 0.06 | 93 | 1009.8 |
| 20260509200519 | 55 | 0 | 0.0 | 4.3 | 0.00 | 0.06 | 0.06 | 93 | 1009.9 |
| 20260509200034 | 55 | 0 | 0.0 | 4.3 | 0.01 | 0.06 | 0.06 | 93 | 1010.0 |
| 20260509195511 | 55 | 213 | 0.9 | 4.3 | 0.01 | 0.06 | 0.06 | 93 | 1010.2 |
| 20260509195024 | 55 | 0 | 0.9 | 4.3 | 0.01 | 0.06 | 0.06 | 93 | 1010.0 |
| 20260509194530 | 55 | 0 | 0.0 | 3.5 | 0.01 | 0.06 | 0.06 | 93 | 1010.0 |
| 20260509194018 | 55 | 0 | 0.0 | 6.1 | 0.01 | 0.06 | 0.06 | 93 | 1010.1 |
| 20260509193520 | 54 | 0 | 0.0 | 6.1 | 0.01 | 0.06 | 0.06 | 93 | 1010.1 |
| 20260509193031 | 54 | 0 | 0.9 | 6.1 | 0.01 | 0.06 | 0.06 | 93 | 1010.5 |
| 20260509192521 | 55 | 216 | 0.9 | 5.2 | 0.01 | 0.06 | 0.06 | 93 | 1010.4 |
| 20260509192027 | 55 | 0 | 0.0 | 3.5 | 0.02 | 0.06 | 0.06 | 93 | 1010.4 |
| 20260509191730 | 55 | 193 | 0.0 | 3.5 | 0.02 | 0.06 | 0.06 | 93 | 1010.6 |
| 20260509191018 | 55 | 211 | 0.0 | 4.3 | 0.02 | 0.06 | 0.06 | 93 | 1010.6 |
| 20260509190610 | 55 | 0 | 0.0 | 4.3 | 0.02 | 0.06 | 0.06 | 92 | 1010.6 |
| 20260509190322 | 55 | 199 | 0.0 | 4.3 | 0.01 | 0.05 | 0.05 | 92 | 1010.8 |
| 20260509183228 | 55 | 0 | 0.0 | 2.6 | 0.01 | 0.05 | 0.05 | 92 | 1011.2 |
| 20260509182511 | 55 | 0 | 0.0 | 2.6 | 0.01 | 0.05 | 0.05 | 92 | 1011.2 |
| 20260509182321 | 55 | 0 | 0.0 | 0.0 | 0.00 | 0.04 | 0.04 | 92 | 1011.3 |
| 20260509175030 | 54 | 0 | 0.0 | 4.3 | 0.00 | 0.04 | 0.04 | 91 | 1011.4 |
| 20260509175008 | 54 | 0 | 0.0 | 1.7 | 0.01 | 0.04 | 0.04 | 91 | 1011.6 |
| 20260509174103 | 55 | 0 | 0.0 | 2.6 | 0.01 | 0.04 | 0.04 | 91 | 1011.4 |
| 20260509173600 | 55 | 221 | 0.0 | 3.5 | 0.01 | 0.04 | 0.04 | 90 | 1011.4 |
| 20260509172925 | 55 | 0 | 0.0 | 0.0 | 0.01 | 0.04 | 0.04 | 91 | 1011.4 |
| 20260509172500 | 56 | 0 | 0.0 | 0.0 | 0.01 | 0.04 | 0.04 | 91 | 1011.3 |
| 20260509171553 | 56 | 0 | 0.0 | 0.0 | 0.01 | 0.04 | 0.04 | 91 | 1011.3 |
| 20260509171055 | 56 | 0 | 0.0 | 0.0 | 0.01 | 0.04 | 0.04 | 90 | 1011.1 |
| 20260509170629 | 56 | 0 | 0.0 | 0.0 | 0.01 | 0.04 | 0.04 | 91 | 1011.0 |
| 20260509170051 | 56 | 0 | 0.0 | 0.0 | 0.02 | 0.04 | 0.04 | 90 | 1011.1 |
| 20260509165511 | 56 | 0 | 0.0 | 0.0 | 0.02 | 0.04 | 0.04 | 91 | 1011.0 |
| 20260509165410 | 56 | 0 | 0.0 | 0.0 | 0.03 | 0.04 | 0.04 | 91 | 1011.1 |